When you browse on this site, cookies collect data to enhance your experience and personalize the content and advertising you see.
Visit our Privacy Policy to learn more. By continuing to use the site, you agree to this use of cookies and data.
  • In Österreich
  • Länderverzeichnis
  • Für 7 Tage
  • Wassertemperatur
  • Wetterkarte
  • News
  • Widgets
  • user-avatar
    Anmelden

    Stündliche Wetter Myślenice

    Heute, 28 Mai, Donnerstag

    Zeit Temperatur Niederschläge Wind Luftdruck Luftfeuchtigkeit
    00:00 +9°C° 0 mm 1 m/S 741 mmHg 93%
    01:00 +9°C° 0 mm 1 m/S 741 mmHg 94%
    02:00 +9°C° 0 mm 1 m/S 740 mmHg 94%
    03:00 +9°C° 0 mm 1 m/S 740 mmHg 94%
    04:00 +9°C° 0 mm 1 m/S 740 mmHg 94%
    05:00 +10°C° 0.1 mm 1 m/S 739 mmHg 92%
    06:00 +12°C° 0.1 mm 1 m/S 739 mmHg 90%
    07:00 +13°C° 0.1 mm 2 m/S 739 mmHg 89%
    08:00 +14°C° 0.7 mm 2 m/S 739 mmHg 85%
    09:00 +15°C° 0.7 mm 2 m/S 739 mmHg 81%
    10:00 +16°C° 0.7 mm 3 m/S 738 mmHg 76%
    11:00 +16°C° 0.8 mm 3 m/S 738 mmHg 76%
    12:00 +17°C° 0.8 mm 3 m/S 738 mmHg 75%
    13:00 +17°C° 0.8 mm 3 m/S 737 mmHg 74%
    14:00 +17°C° 0.7 mm 3 m/S 737 mmHg 76%
    15:00 +17°C° 0.7 mm 3 m/S 737 mmHg 77%
    16:00 +16°C° 0.7 mm 3 m/S 737 mmHg 79%
    17:00 +14°C° 0.7 mm 3 m/S 737 mmHg 82%
    18:00 +13°C° 0.7 mm 3 m/S 737 mmHg 85%
    19:00 +12°C° 0.7 mm 3 m/S 737 mmHg 88%
    20:00 +12°C° 0.5 mm 2 m/S 737 mmHg 90%
    21:00 +12°C° 0.5 mm 2 m/S 737 mmHg 92%
    22:00 +11°C° 0.5 mm 1 m/S 737 mmHg 94%
    23:00 +10°C° 0.1 mm 1 m/S 737 mmHg 95%

    Morgen, 29 Mai, Freitag

    Zeit Temperatur Niederschläge Wind Luftdruck Luftfeuchtigkeit
    00:00 +10°C° 0.1 mm 1 m/S 737 mmHg 96%
    01:00 +10°C° 0.1 mm 1 m/S 737 mmHg 97%
    02:00 +10°C° 0.1 mm 1 m/S 737 mmHg 97%
    03:00 +9°C° 0.1 mm 2 m/S 737 mmHg 97%
    04:00 +10°C° 0.1 mm 2 m/S 737 mmHg 97%
    05:00 +10°C° 0.1 mm 2 m/S 737 mmHg 97%
    06:00 +10°C° 0.1 mm 2 m/S 737 mmHg 96%
    07:00 +10°C° 0.1 mm 3 m/S 737 mmHg 95%
    08:00 +10°C° 0.2 mm 3 m/S 737 mmHg 94%
    09:00 +10°C° 0.2 mm 3 m/S 737 mmHg 93%
    10:00 +10°C° 0.2 mm 3 m/S 737 mmHg 91%
    11:00 +11°C° 0.1 mm 3 m/S 737 mmHg 88%
    12:00 +11°C° 0.1 mm 3 m/S 737 mmHg 85%
    13:00 +11°C° 0.1 mm 3 m/S 737 mmHg 82%
    14:00 +12°C° 0.2 mm 3 m/S 737 mmHg 79%
    15:00 +13°C° 0.2 mm 3 m/S 736 mmHg 77%
    16:00 +14°C° 0.2 mm 4 m/S 736 mmHg 74%
    17:00 +13°C° 0.3 mm 3 m/S 736 mmHg 78%
    18:00 +12°C° 0.3 mm 3 m/S 736 mmHg 83%
    19:00 +12°C° 0.3 mm 2 m/S 736 mmHg 88%
    20:00 +10°C° 0.2 mm 2 m/S 736 mmHg 89%
    21:00 +9°C° 0.2 mm 2 m/S 736 mmHg 91%
    22:00 +8°C° 0.2 mm 2 m/S 736 mmHg 93%
    23:00 +8°C° 0 mm 2 m/S 736 mmHg 93%

    übermorgen, 30 Mai, Samstag

    Zeit Temperatur Niederschläge Wind Luftdruck Luftfeuchtigkeit
    00:00 +8°C° 0 mm 2 m/S 736 mmHg 94%
    01:00 +8°C° 0 mm 2 m/S 736 mmHg 94%
    02:00 +7°C° 0 mm 2 m/S 736 mmHg 95%
    03:00 +7°C° 0 mm 2 m/S 735 mmHg 95%
    04:00 +7°C° 0 mm 2 m/S 735 mmHg 96%
    05:00 +7°C° 0 mm 2 m/S 735 mmHg 95%
    06:00 +8°C° 0 mm 2 m/S 735 mmHg 93%
    07:00 +8°C° 0 mm 3 m/S 735 mmHg 92%
    08:00 +9°C° 0 mm 3 m/S 735 mmHg 89%
    09:00 +9°C° 0 mm 3 m/S 735 mmHg 86%
    10:00 +10°C° 0 mm 4 m/S 735 mmHg 83%
    11:00 +10°C° 0.1 mm 3 m/S 735 mmHg 83%
    12:00 +10°C° 0.1 mm 3 m/S 735 mmHg 83%
    13:00 +10°C° 0.1 mm 3 m/S 735 mmHg 83%
    14:00 +10°C° 0.2 mm 3 m/S 734 mmHg 86%
    15:00 +10°C° 0.2 mm 3 m/S 734 mmHg 88%
    16:00 +9°C° 0.2 mm 3 m/S 734 mmHg 91%
    17:00 +9°C° 0.1 mm 3 m/S 734 mmHg 92%
    18:00 +9°C° 0.1 mm 2 m/S 733 mmHg 93%
    19:00 +9°C° 0.1 mm 2 m/S 733 mmHg 94%
    20:00 +9°C° 0.1 mm 3 m/S 733 mmHg 95%
    21:00 +9°C° 0.1 mm 3 m/S 733 mmHg 96%
    22:00 +8°C° 0.1 mm 3 m/S 733 mmHg 96%
    23:00 +9°C° 0.1 mm 3 m/S 732 mmHg 96%

    31 Mai, Sonntag

    Zeit Temperatur Niederschläge Wind Luftdruck Luftfeuchtigkeit
    00:00 +9°C° 0.1 mm 3 m/S 732 mmHg 96%
    01:00 +8°C° 0.1 mm 4 m/S 731 mmHg 96%
    02:00 +8°C° 1.6 mm 4 m/S 731 mmHg 97%
    03:00 +8°C° 1.6 mm 4 m/S 730 mmHg 97%
    04:00 +8°C° 1.6 mm 4 m/S 730 mmHg 98%
    05:00 +8°C° 2 mm 4 m/S 730 mmHg 98%
    06:00 +8°C° 2 mm 4 m/S 730 mmHg 98%
    07:00 +10°C° 2 mm 4 m/S 729 mmHg 98%
    08:00 +10°C° 3.4 mm 3 m/S 730 mmHg 98%
    09:00 +10°C° 3.4 mm 3 m/S 730 mmHg 98%
    10:00 +10°C° 3.4 mm 3 m/S 730 mmHg 98%
    11:00 +12°C° 1.3 mm 2 m/S 730 mmHg 98%
    12:00 +12°C° 1.3 mm 2 m/S 730 mmHg 98%
    13:00 +12°C° 1.3 mm 2 m/S 730 mmHg 98%
    14:00 +13°C° 1.1 mm 2 m/S 730 mmHg 98%
    15:00 +13°C° 1.1 mm 2 m/S 731 mmHg 98%
    16:00 +13°C° 1.1 mm 2 m/S 731 mmHg 98%
    17:00 +14°C° 0.9 mm 2 m/S 731 mmHg 98%
    18:00 +14°C° 0.9 mm 2 m/S 731 mmHg 97%
    19:00 +14°C° 0.9 mm 2 m/S 731 mmHg 97%
    20:00 +14°C° 0.6 mm 2 m/S 731 mmHg 97%
    21:00 +13°C° 0.6 mm 3 m/S 732 mmHg 97%
    22:00 +13°C° 0.6 mm 3 m/S 732 mmHg 97%
    23:00 +13°C° 0.2 mm 3 m/S 732 mmHg 97%

    1 Juni, Montag

    Zeit Temperatur Niederschläge Wind Luftdruck Luftfeuchtigkeit
    00:00 +13°C° 0.2 mm 3 m/S 732 mmHg 97%
    01:00 +13°C° 0.2 mm 3 m/S 732 mmHg 98%
    02:00 +12°C° 0.1 mm 3 m/S 732 mmHg 97%
    03:00 +12°C° 0.1 mm 4 m/S 733 mmHg 97%
    04:00 +12°C° 0.1 mm 4 m/S 733 mmHg 97%
    05:00 +12°C° 0.1 mm 4 m/S 733 mmHg 96%
    06:00 +11°C° 0.1 mm 4 m/S 733 mmHg 96%
    07:00 +11°C° 0.1 mm 4 m/S 733 mmHg 95%
    08:00 +12°C° 0.1 mm 4 m/S 734 mmHg 94%
    09:00 +12°C° 0.1 mm 4 m/S 734 mmHg 93%
    10:00 +12°C° 0.1 mm 4 m/S 734 mmHg 93%
    11:00 +13°C° 0.2 mm 4 m/S 734 mmHg 92%
    12:00 +13°C° 0.2 mm 4 m/S 734 mmHg 91%
    13:00 +14°C° 0.2 mm 4 m/S 734 mmHg 90%
    14:00 +14°C° 0.4 mm 3 m/S 734 mmHg 90%
    15:00 +14°C° 0.4 mm 3 m/S 734 mmHg 90%
    16:00 +14°C° 0.4 mm 3 m/S 734 mmHg 90%
    17:00 +13°C° 0.1 mm 3 m/S 734 mmHg 92%
    18:00 +14°C° 0.1 mm 2 m/S 734 mmHg 93%
    19:00 +13°C° 0.1 mm 2 m/S 734 mmHg 94%
    20:00 +13°C° 0.1 mm 2 m/S 734 mmHg 94%
    21:00 +12°C° 0.1 mm 2 m/S 735 mmHg 95%
    22:00 +10°C° 0.1 mm 2 m/S 735 mmHg 95%
    23:00 +10°C° 0.1 mm 2 m/S 735 mmHg 96%

    2 Juni, Dienstag

    Zeit Temperatur Niederschläge Wind Luftdruck Luftfeuchtigkeit
    00:00 +10°C° 0.1 mm 2 m/S 735 mmHg 97%
    01:00 +10°C° 0.1 mm 2 m/S 734 mmHg 97%
    02:00 +10°C° 0 mm 2 m/S 734 mmHg 97%
    03:00 +10°C° 0 mm 2 m/S 734 mmHg 98%
    04:00 +10°C° 0 mm 2 m/S 734 mmHg 98%
    05:00 +12°C° 0 mm 2 m/S 735 mmHg 97%
    06:00 +12°C° 0 mm 2 m/S 735 mmHg 96%
    07:00 +11°C° 0 mm 3 m/S 735 mmHg 96%
    08:00 +12°C° 0.1 mm 3 m/S 735 mmHg 93%
    09:00 +13°C° 0.1 mm 3 m/S 735 mmHg 90%
    10:00 +14°C° 0.1 mm 3 m/S 735 mmHg 87%
    11:00 +15°C° 0.3 mm 4 m/S 735 mmHg 84%
    12:00 +17°C° 0.3 mm 4 m/S 735 mmHg 81%
    13:00 +17°C° 0.3 mm 5 m/S 735 mmHg 79%
    14:00 +18°C° 0.3 mm 4 m/S 734 mmHg 78%
    15:00 +18°C° 0.3 mm 4 m/S 734 mmHg 77%
    16:00 +18°C° 0.3 mm 4 m/S 734 mmHg 77%
    17:00 +17°C° 0.2 mm 4 m/S 734 mmHg 80%
    18:00 +16°C° 0.2 mm 3 m/S 734 mmHg 84%
    19:00 +14°C° 0.2 mm 3 m/S 734 mmHg 88%
    20:00 +14°C° 0 mm 2 m/S 734 mmHg 90%
    21:00 +13°C° 0 mm 2 m/S 734 mmHg 92%
    22:00 +12°C° 0 mm 2 m/S 735 mmHg 94%
    23:00 +10°C° 0 mm 2 m/S 735 mmHg 95%
    Mehr zeigen